Location: Brusselsch Zeekanaal
(50.8667°N, 4.3667°E)
Time: 12:09:04
(UTC+00:00)

CENTAUR R/B - Pass Details

Date: 08 November 2025
Orbit: 633 x 1547 km, 63.4° (Epoch: 10 December)

Event Time Altitude Azimuth Distance (km) Brightness Sun altitude
Exits shadow 02:05:02 29° 18° (NNE) 2,030 4.4 -43.4°
Drops below altitude 10° 02:10:04 10° 51° (NE) 3,344 5.9 -42.7°
Sets 02:13:35 0° 60° (ENE) 4,448 6.8 -42.2°
